STARLINK-4112, 52861

Orbit data source: Space-Track

STARLINK-4112, 52861 is a payload satellite owned by SpaceX/Seattle (US) in LEO that was launched on Fri, 17 Jun 2022 UTC via an FALCON 9 launch vehicle from the Air Force Eastern Test Range (AFETR). Payload-class satellites include a variety of spacecraft equipped with specific instruments for various scientific and technological missions. These include communications satellites like Starlink; space stations such as the ISS; scientific satellites like the Hubble; Earth observation satellites from companies like Planet Labs, Umbra, and HawkEye 360; GPS; miniature CubeSats for education and research; and military/defense satellites.

Loading next visibility...
Identifier
52861, 2022-062AH
Orbit
LEO
Country
Flag of USUS
Related business
Manufacturer
SpaceX/Seattle
Mission
Operational Commercial Communications
Bus & Motor
STARLINK, Unknown motor
Mass
297 kg wet, ~275 kg dry
Launch date (UTC)
2022-06-17 (3 years ago)
Launch vehicle
FALCON 9
Launch site
Air Force Eastern Test Range (AFETR)
Object type
Payload
Rocket body
Debris
Shape & HBR
Box + 1 Pan, 10.1 m
Radar Cross Section
13.562 m², Large (>1 m²)

Expand to show TLE details & history
Last TLE update: 18 hours ago

TLE from 18 hours ago
0 STARLINK-4112
1 52861U 22062AH  25349.33638763  .00000586  00000-0  54934-4 0  9994
2 52861  53.2186  42.8102 0001414 103.2465 256.8685 15.08830487193194
Epoch: 2025-12-15T08:04Z
TLE epoch observation values (Epoch: 2025-12-15T08:04:23.891Z)
Latitude
-0.00001°
Longitude
-162.52576°
Altitude
540.892 km
Speed
7.593 km/s
True Right ascension
02h 51m 14s
True Declination
0° 00' 00"
Sunlit
Object was in full shadow at epoch
Visualization orbit readout
Latitude
Unknown
Longitude
Unknown
Altitude
Unknown
Speed
Unknown
Apparent Right ascension
Unknown
Apparent Declination
Unknown
Sunlit
N/A
Visualization observer readout
Local Sidereal Time
00:23:57
Azimuth
Unknown
Elevation
Unknown
Doppler factor
Unknown
Orbital elements
Apogee altitude
540.995 km
Perigee altitude
539.039 km
Semi-major axis
6,918.154 km
Eccentricity
0.00014
Inclination
53.2186°
RAAN
42.8102°
Arg. of periapsis
103.2465°
True anomaly
256.85272°
Mean anomaly
256.8685°
Eccentric anomaly
256.86061°
Mean motion
3.77188 °/min
Orbital period
95.44 mins
BSTAR
0.000054934
Loading maneuver chart data...
Computing Atmospheric mass density...
Loading historical data...
Loading historical data...
Loading historical data...
Loading historical data...
Loading historical data...
Loading historical data...
Loading historical data...

Documentation

Showing up to 5 results
|